TITAN 3C TRANSTAGE DEB, 43514

Orbit data source: Space-Track

TITAN 3C TRANSTAGE DEB, 43514 is space debris originally from a launch on Sun, 09 Feb 1969 UTC launched from the Air Force Eastern Test Range (AFETR). Debris objects in space refer to the collection of defunct objects orbiting the Earth. Examples of debris include non-operational satellites, rocket bodies, and fragments generated from explosions, collisions, or faulty payload assembly.

Loading next visibility...
TITAN 3C TRANSTAGE DEB details
Identifier
43514, 1969-013S
Orbit
Active
Last TLE update5 days ago
Origin
Flag of USUSAF SMC (US)
ManufacturerMartin Marietta
MissionSpacecraft
Bus & MotorUnknown
MassUnknown
Launch date (UTC)
1969-02-09 (56 years ago)
Launch vehicleUnknown
Launch site
Air Force Eastern Test Range (AFETR)
Object type
Payload
Rocket body
Debris
Shape & HBRUnknown
Radar Cross SectionRCS unknown

Expand to show TLE details & history

TLE from 5 days ago
0 TITAN 3C TRANSTAGE DEB
1 43514U 69013S   24320.98857326 -.00000203  00000-0  00000-0 0  9991
2 43514   0.5466 350.7312 0188714 118.2634 253.0874  0.97799895872701
Epoch: 2024-11-15T23:43Z
Definitive object data (Epoch: 2024-11-15T23:43:32.729Z)
Latitude0.11232°
Longitude-51.43548°
Altitude36,738.969 km
Speed3.032 km/s
True Right ascension23h 59m 59s
True Declination0° 06' 44"
Sunlit
Object was in daylight at TLE epoch
Visualization TLE readout
Latitude0.52732°
Longitude8.70968°
Altitude35,951.801 km
Speed3.088 km/s
Apparent Right ascension04h 04m 17s
Apparent Declination-5° 36' 41"
Sunlit
Object is in daylight
Visualization observer readout
Local Sidereal Time03:32:06
Azimuth168.86° S
Elevation43.872°
Doppler factor1
Orbital elements
Apogee altitude37,304.243 km
Perigee altitude35,686.085 km
Semi-major axis42,873.301 km
Eccentricity0.0188714
Inclination0.5466°
RAAN350.7312°
Arg. of periapsis118.2634°
True anomaly251.03297°
Mean anomaly253.0874°
Eccentric anomaly252.05873°
Mean motion0.24449 °/min
BSTARUnknown
Orbital period1472.45 mins
Loading maneuver chart data...

TITAN 3C TRANSTAGE DEB Visibility forecast

Observer location: undefined°, undefined

Span
Click to sort rows by Start time (UTC) header in descending order
Start Az.
Max El. time (UTC)
Max El. Az.
Max El.
End time (UTC)
End Az.
1440 mins2024-11-21 06:29:33.892Z168.864° S2024-11-22 06:29:33.892Z183.109° SSW34.971°2024-11-22 06:29:33.892Z183.109° SSW
|